Location: Valencia
(39.4696°N, 0.3770°W)
Time: 08:51:57
(UTC+01:00)

ISS - Visible Passes

Search period start: 19 February 2018 00:00
Search period end: 01 March 2018 00:00
Orbit: 403 x 407 km, 51.6° (Epoch: 19 February)

Date Brightness Start Highest point End Pass type
(mag) Time Alt. Az. Time Alt. Az. Time Alt. Az.
26 Feb -1.2 06:21:11 10° S 06:23:38 20° SE 06:26:06 10° E visible
27 Feb -3.9 07:04:18 10° SW 07:07:34 79° NW 07:10:52 10° NE visible
28 Feb -3.1 06:13:36 23° SSW 06:15:18 50° SE 06:18:29 10° ENE visible
